Fort Indiantown Gap, PA

8:38 AM EST on November 15, 2019 (GMT -0500)
Muir Army Air Field

Weather History for KMUI - October, 2019

Change the Weather History Date:

Tuesday, October 22, 2019

  Actual Average Record
Temperature  
Mean Temperature 57 °F -  
Max Temperature 59 °F 58 °F 75 °F (2007)
Min Temperature 55 °F 42 °F 33 °F (2002)
Degree Days  
Heating Degree Days 8    
Growing Degree Days 7 (Base 50)    
Moisture  
Dew Point 56 °F    
Average Humidity 96    
Maximum Humidity 100    
Minimum Humidity 82    
Precipitation  
Precipitation 0.42 in - - ()
Sea Level Pressure  
Sea Level Pressure 29.95 in    
Wind  
Wind Speed 3 mph (ESE)    
Max Wind Speed 8 mph    
Max Gust Speed -    
Visibility 5 miles    
Events Rain    
Averages and records for this station are not official NWS values.
T = Trace of Precipitation, MM = Missing Value Source: NWS Daily Summary

Daily Weather History Graph

Daily Weather History Graph

Search for Another Location

Airport or City:

Astronomy

Oct. 22, 2019 Rise Set
Actual Time 7:24 AM EDT 6:16 PM EDT
Civil Twilight 6:56 AM EDT 6:44 PM EDT
Nautical Twilight 6:24 AM EDT 7:15 PM EDT
Astronomical Twilight 5:53 AM EDT 7:47 PM EDT
Moon 12:30 AM EDT (10/22) 3:25 PM EDT (10/22)
Length of Visible Light 11h 47m
Length of Day
10h 51m
Last Quarter, 37% of the Moon is Illuminated
Oct 22
Last Quarter
Oct 27
New
Nov 4
First Quarter
Nov 12
Full
Nov 19
Last Quarter

Hourly Weather History & Observations

Time (EDT) Temp. Dew Point Humidity Pressure Visibility Wind Dir Wind Speed Gust Speed Precip Events Conditions
12:28 AM 55.4 °F 50.0 °F 82% 30.09 in 10.0 mi Calm Calm - N/A   Overcast
12:44 AM 55.4 °F 50.0 °F 82% 30.09 in 10.0 mi Calm Calm - N/A   Overcast
12:56 AM 55.8 °F 51.1 °F 84% 30.08 in 10.0 mi Calm Calm - N/A   Overcast
1:56 AM 56.5 °F 52.7 °F 87% 30.10 in 8.0 mi South 5.8 mph - N/A   Overcast
2:05 AM 57.2 °F 53.6 °F 88% 30.09 in 10.0 mi SE 5.8 mph - N/A   Overcast
2:21 AM 57.2 °F 53.6 °F 88% 30.08 in 10.0 mi Calm Calm - N/A   Overcast
2:40 AM 57.2 °F 53.6 °F 88% 30.09 in 10.0 mi Calm Calm - N/A   Overcast
3:12 AM 55.4 °F 53.6 °F 94% 30.07 in 9.0 mi ESE 3.5 mph - N/A   Overcast
3:44 AM 55.4 °F 53.6 °F 94% 30.04 in 4.0 mi East 3.5 mph - N/A   Overcast
3:56 AM 55.6 °F 54.1 °F 95% 30.04 in 3.0 mi ESE 3.5 mph - N/A   Overcast
4:12 AM 55.4 °F 55.4 °F 100% 30.03 in 2.8 mi ESE 4.6 mph - N/A   Overcast
4:28 AM 55.4 °F 55.4 °F 100% 30.02 in 2.8 mi East 4.6 mph - N/A   Overcast
4:36 AM 55.4 °F 55.4 °F 100% 30.02 in 3.0 mi East 4.6 mph - N/A   Overcast
4:56 AM 55.8 °F 54.9 °F 97% 30.04 in 4.0 mi Calm Calm - N/A   Overcast
5:28 AM 55.4 °F 55.4 °F 100% 30.04 in 1.6 mi Calm Calm - N/A   Overcast
5:36 AM 55.4 °F 55.4 °F 100% 30.02 in 2.0 mi East 3.5 mph - N/A   Overcast
5:56 AM 55.6 °F 55.0 °F 98% 30.02 in 2.5 mi Calm Calm - N/A   Overcast
6:12 AM 55.4 °F 55.4 °F 100% 30.02 in 4.0 mi Calm Calm - N/A   Overcast
6:56 AM 55.9 °F 55.6 °F 99% 30.00 in 4.0 mi ESE 5.8 mph - N/A   Overcast
7:08 AM 55.4 °F 55.4 °F 100% 30.01 in 2.0 mi SE 5.8 mph - N/A   Overcast
7:56 AM 55.9 °F 55.6 °F 99% 30.00 in 2.0 mi ESE 4.6 mph - N/A   Overcast
8:56 AM 55.9 °F 55.6 °F 99% 30.01 in 2.0 mi East 3.5 mph - N/A   Overcast
9:17 AM 55.4 °F 55.4 °F 100% 30.01 in 3.0 mi ESE 4.6 mph - N/A   Overcast
9:56 AM 56.5 °F 56.1 °F 99% 30.00 in 2.0 mi East 4.6 mph - N/A   Overcast
10:56 AM 56.7 °F 56.3 °F 99% 29.97 in 2.5 mi East 4.6 mph - N/A   Overcast
11:56 AM 57.0 °F 56.7 °F 99% 29.95 in 5.0 mi East 4.6 mph - N/A   Overcast
12:43 PM 59.0 °F 57.2 °F 94% 29.90 in 6.0 mi ESE 6.9 mph - N/A   Overcast
1:27 PM 59.0 °F 59.0 °F 100% 29.87 in 6.0 mi SE 8.1 mph - N/A Rain Light Rain
1:56 PM 59.7 °F 57.9 °F 94% 29.86 in 6.0 mi SE 5.8 mph - 0.00 in   Overcast
2:08 PM 59.0 °F 57.2 °F 94% 29.85 in 5.0 mi ESE 6.9 mph - N/A   Overcast
2:21 PM 59.0 °F 59.0 °F 100% 29.84 in 4.0 mi ESE 6.9 mph - N/A   Overcast
2:49 PM 59.0 °F 59.0 °F 100% 29.82 in 4.0 mi Variable 3.5 mph - N/A   Light Drizzle
2:56 PM 59.4 °F 58.8 °F 98% 29.83 in 3.0 mi ESE 3.5 mph - 0.01 in Rain Light Rain
3:04 PM 59.0 °F 59.0 °F 100% 29.82 in 2.0 mi East 5.8 mph - N/A Rain Light Rain
3:56 PM 58.6 °F 58.3 °F 99% 29.84 in 2.0 mi NNW 3.5 mph - 0.33 in Rain Rain
5:19 PM 59.0 °F 59.0 °F 100% 29.83 in 3.0 mi SW 4.6 mph - N/A Rain Light Rain
5:42 PM 59.0 °F 59.0 °F 100% 29.84 in 3.0 mi WSW 4.6 mph - N/A Rain Light Rain
5:56 PM 59.2 °F 58.8 °F 99% 29.84 in 3.0 mi WSW 4.6 mph - 0.05 in Rain Light Rain
6:23 PM 59.0 °F 59.0 °F 100% 29.83 in 5.0 mi Calm Calm - N/A Rain Light Rain
6:56 PM 58.5 °F 58.1 °F 99% 29.82 in 6.0 mi Calm Calm - 0.03 in Rain Light Rain
7:11 PM 59.0 °F 57.2 °F 94% 29.81 in 6.0 mi ENE 3.5 mph - N/A   Overcast
7:43 PM 59.0 °F 59.0 °F 100% 29.83 in 10.0 mi Calm Calm - N/A   Overcast
7:56 PM 58.5 °F 58.1 °F 99% 29.83 in 9.0 mi Calm Calm - 0.00 in   Overcast
8:56 PM 58.1 °F 57.7 °F 99% 29.84 in 4.0 mi SW 5.8 mph - N/A   Overcast
9:56 PM 56.8 °F 55.8 °F 96% 29.85 in 8.0 mi SW 5.8 mph - N/A   Scattered Clouds
10:56 PM 56.5 °F 54.1 °F 92% 29.85 in 10.0 mi West 6.9 mph - N/A   Clear
11:56 PM 55.8 °F 53.2 °F 91% 29.85 in 10.0 mi West 3.5 mph - N/A   Clear